Tracking 22881 objects as of 19-Apr-2021
HD Live streaming from Space Station
objects crossing your sky now

STARLINK-1709

Track STARLINK-1709 now!
10-day predictions
STARLINK-1709 is classified as:


NORAD ID: 46561
Int'l Code: 2020-070AF
Perigee: 553.3 km
Apogee: 555.5 km
Inclination: 53.1 °
Period: 95.6 minutes
Semi major axis: 6925 km
RCS: Unknown
Launch date: October 6, 2020
Source: United States (US)
Launch site: AIR FORCE EASTERN TEST RANGE (AFETR)
aabbcc
Your satellite tracking list
Your tracking list is empty




NASA's NSSDC Master Catalog

Two Line Element Set (TLE):
1 46561U 20070AF  21109.10003966 -.00000715  00000-0 -29118-4 0  9999
2 46561  53.0563 257.4401 0001584 107.8635 252.2527 15.06395620 30596
Source of the keplerian elements: AFSPC